Tiempo cada hora Aberkenfig

Hoy, 29 Octubre, Jueves

Tiempo Temperatura Precipitaciones Viento Presión Humedad
00:00 +5°C° 0.1 mm 8 mps 746 mmHg 82%
01:00 +6°C° 0.1 mm 8 mps 746 mmHg 83%
02:00 +6°C° 0.1 mm 8 mps 747 mmHg 84%
03:00 +8°C° 0.1 mm 7 mps 747 mmHg 85%
04:00 +8°C° 0.2 mm 7 mps 747 mmHg 88%
05:00 +8°C° 0.2 mm 7 mps 747 mmHg 91%
06:00 +8°C° 0.2 mm 7 mps 747 mmHg 94%
07:00 +9°C° 0.8 mm 8 mps 747 mmHg 95%
08:00 +10°C° 0.8 mm 9 mps 747 mmHg 95%
09:00 +11°C° 0.8 mm 10 mps 747 mmHg 95%
10:00 +11°C° 0.6 mm 10 mps 747 mmHg 94%
11:00 +11°C° 0.6 mm 10 mps 747 mmHg 93%
12:00 +12°C° 0.6 mm 11 mps 747 mmHg 91%
13:00 +12°C° 0.1 mm 11 mps 747 mmHg 91%
14:00 +12°C° 0.1 mm 11 mps 747 mmHg 91%
15:00 +12°C° 0.1 mm 11 mps 747 mmHg 90%
16:00 +12°C° 0 mm 11 mps 747 mmHg 90%
17:00 +12°C° 0 mm 10 mps 747 mmHg 90%
18:00 +12°C° 0 mm 10 mps 747 mmHg 90%
19:00 +12°C° 0.1 mm 10 mps 747 mmHg 91%
20:00 +12°C° 0.1 mm 10 mps 748 mmHg 92%
21:00 +12°C° 0.1 mm 10 mps 748 mmHg 93%
22:00 +12°C° 0 mm 10 mps 748 mmHg 93%
23:00 +12°C° 0 mm 11 mps 748 mmHg 92%

Mañana, 30 Octubre, Viernes

Tiempo Temperatura Precipitaciones Viento Presión Humedad
00:00 +12°C° 0 mm 11 mps 748 mmHg 92%
01:00 +12°C° 0.2 mm 11 mps 748 mmHg 92%
02:00 +12°C° 0.2 mm 10 mps 748 mmHg 93%
03:00 +12°C° 0.2 mm 10 mps 748 mmHg 93%
04:00 +12°C° 0.1 mm 10 mps 748 mmHg 92%
05:00 +12°C° 0.1 mm 10 mps 748 mmHg 92%
06:00 +12°C° 0.1 mm 10 mps 748 mmHg 92%
07:00 +12°C° 0.1 mm 10 mps 748 mmHg 92%
08:00 +12°C° 0.1 mm 9 mps 749 mmHg 93%
09:00 +13°C° 0.1 mm 9 mps 749 mmHg 93%
10:00 +13°C° 0.6 mm 9 mps 749 mmHg 94%
11:00 +13°C° 0.6 mm 9 mps 749 mmHg 94%
12:00 +13°C° 0.6 mm 9 mps 749 mmHg 94%
13:00 +13°C° 0.6 mm 8 mps 750 mmHg 95%
14:00 +13°C° 0.6 mm 8 mps 750 mmHg 95%
15:00 +14°C° 0.6 mm 7 mps 750 mmHg 95%
16:00 +13°C° 0.3 mm 8 mps 750 mmHg 95%
17:00 +12°C° 0.3 mm 8 mps 749 mmHg 94%
18:00 +12°C° 0.3 mm 8 mps 749 mmHg 93%
19:00 +12°C° 0.2 mm 7 mps 749 mmHg 94%
20:00 +12°C° 0.2 mm 7 mps 749 mmHg 95%
21:00 +12°C° 0.2 mm 7 mps 749 mmHg 95%
22:00 +12°C° 0.3 mm 7 mps 749 mmHg 95%
23:00 +12°C° 0.3 mm 7 mps 748 mmHg 95%

Pasado mañana, 31 Octubre, Sábado

Tiempo Temperatura Precipitaciones Viento Presión Humedad
00:00 +14°C° 0.3 mm 7 mps 748 mmHg 95%
01:00 +13°C° 0.7 mm 8 mps 747 mmHg 94%
02:00 +12°C° 0.7 mm 8 mps 747 mmHg 94%
03:00 +12°C° 0.7 mm 8 mps 746 mmHg 93%
04:00 +13°C° 3.3 mm 9 mps 746 mmHg 94%
05:00 +13°C° 3.3 mm 9 mps 745 mmHg 94%
06:00 +13°C° 3.3 mm 10 mps 745 mmHg 95%
07:00 +13°C° 0.3 mm 10 mps 745 mmHg 94%
08:00 +12°C° 0.3 mm 9 mps 745 mmHg 93%
09:00 +12°C° 0.3 mm 9 mps 745 mmHg 92%
10:00 +12°C° 0.1 mm 9 mps 746 mmHg 91%
11:00 +12°C° 0.1 mm 8 mps 746 mmHg 89%
12:00 +12°C° 0.1 mm 8 mps 746 mmHg 88%
13:00 +12°C° 0.4 mm 8 mps 746 mmHg 90%
14:00 +11°C° 0.4 mm 7 mps 745 mmHg 93%
15:00 +11°C° 0.4 mm 6 mps 745 mmHg 95%
16:00 +11°C° 0.5 mm 7 mps 745 mmHg 95%
17:00 +11°C° 0.5 mm 7 mps 744 mmHg 95%
18:00 +11°C° 0.5 mm 7 mps 743 mmHg 95%
19:00 +11°C° 2.2 mm 8 mps 742 mmHg 95%
20:00 +12°C° 2.2 mm 9 mps 741 mmHg 95%
21:00 +12°C° 2.2 mm 10 mps 740 mmHg 96%
22:00 +12°C° 2.6 mm 11 mps 739 mmHg 96%
23:00 +13°C° 2.6 mm 11 mps 738 mmHg 96%

1 Noviembre, Domingo

Tiempo Temperatura Precipitaciones Viento Presión Humedad
00:00 +13°C° 2.6 mm 12 mps 737 mmHg 96%
01:00 +14°C° 3.4 mm 13 mps 736 mmHg 96%
02:00 +14°C° 3.4 mm 14 mps 736 mmHg 95%
03:00 +14°C° 3.4 mm 15 mps 735 mmHg 95%
04:00 +13°C° 0.6 mm 14 mps 736 mmHg 91%
05:00 +12°C° 0.6 mm 13 mps 736 mmHg 87%
06:00 +10°C° 0.6 mm 12 mps 737 mmHg 83%
07:00 +11°C° 0 mm 11 mps 738 mmHg 83%
08:00 +9°C° 0 mm 10 mps 739 mmHg 83%
09:00 +9°C° 0 mm 10 mps 740 mmHg 83%
10:00 +10°C° 0 mm 9 mps 740 mmHg 80%
11:00 +10°C° 0 mm 9 mps 741 mmHg 77%
12:00 +10°C° 0 mm 9 mps 741 mmHg 75%
13:00 +10°C° 0.5 mm 8 mps 741 mmHg 79%
14:00 +9°C° 0.5 mm 7 mps 741 mmHg 84%
15:00 +9°C° 0.5 mm 6 mps 741 mmHg 88%
16:00 +9°C° 0.4 mm 6 mps 741 mmHg 91%
17:00 +9°C° 0.4 mm 5 mps 740 mmHg 93%
18:00 +9°C° 0.4 mm 5 mps 740 mmHg 95%
19:00 +10°C° 1.7 mm 4 mps 739 mmHg 96%
20:00 +10°C° 1.7 mm 3 mps 739 mmHg 97%
21:00 +10°C° 1.7 mm 2 mps 738 mmHg 98%
22:00 +10°C° 2.5 mm 2 mps 738 mmHg 98%
23:00 +10°C° 2.5 mm 2 mps 737 mmHg 98%

2 Noviembre, Lunes

Tiempo Temperatura Precipitaciones Viento Presión Humedad
00:00 +11°C° 2.5 mm 1 mps 737 mmHg 98%
01:00 +10°C° 1.3 mm 3 mps 737 mmHg 98%
02:00 +10°C° 1.3 mm 4 mps 737 mmHg 97%
03:00 +9°C° 1.3 mm 6 mps 736 mmHg 97%
04:00 +9°C° 0.9 mm 6 mps 737 mmHg 95%
05:00 +9°C° 0.9 mm 6 mps 737 mmHg 94%
06:00 +8°C° 0.9 mm 6 mps 738 mmHg 93%
07:00 +8°C° 0.6 mm 6 mps 738 mmHg 91%
08:00 +8°C° 0.6 mm 7 mps 739 mmHg 89%
09:00 +8°C° 0.6 mm 7 mps 739 mmHg 87%
10:00 +9°C° 0.3 mm 8 mps 740 mmHg 84%
11:00 +8°C° 0.3 mm 9 mps 740 mmHg 82%
12:00 +9°C° 0.3 mm 10 mps 741 mmHg 80%
13:00 +10°C° 0.2 mm 9 mps 741 mmHg 80%
14:00 +8°C° 0.2 mm 9 mps 741 mmHg 79%
15:00 +8°C° 0.2 mm 9 mps 741 mmHg 79%
16:00 +8°C° 0.1 mm 9 mps 742 mmHg 81%
17:00 +7°C° 0.1 mm 9 mps 742 mmHg 84%
18:00 +7°C° 0.1 mm 9 mps 742 mmHg 86%
19:00 +7°C° 0.1 mm 9 mps 743 mmHg 86%
20:00 +7°C° 0.1 mm 8 mps 743 mmHg 87%
21:00 +7°C° 0.1 mm 8 mps 743 mmHg 87%
22:00 +7°C° 0.1 mm 8 mps 743 mmHg 86%
23:00 +7°C° 0.1 mm 8 mps 743 mmHg 86%

3 Noviembre, Martes

Tiempo Temperatura Precipitaciones Viento Presión Humedad
00:00 +7°C° 0.1 mm 8 mps 744 mmHg 85%
01:00 +7°C° 0.2 mm 8 mps 744 mmHg 86%
02:00 +7°C° 0.2 mm 8 mps 744 mmHg 87%
03:00 +7°C° 0.2 mm 8 mps 745 mmHg 88%
04:00 +6°C° 0.2 mm 8 mps 745 mmHg 88%
05:00 +6°C° 0.2 mm 8 mps 746 mmHg 87%
06:00 +6°C° 0.2 mm 8 mps 746 mmHg 87%
07:00 +7°C° 0.1 mm 8 mps 747 mmHg 86%
08:00 +7°C° 0.1 mm 8 mps 748 mmHg 84%
09:00 +7°C° 0.1 mm 9 mps 748 mmHg 83%
10:00 +8°C° 0.1 mm 9 mps 749 mmHg 81%
11:00 +8°C° 0.1 mm 9 mps 749 mmHg 80%
12:00 +10°C° 0.1 mm 9 mps 750 mmHg 78%
13:00 +10°C° 0.2 mm 9 mps 750 mmHg 80%
14:00 +8°C° 0.2 mm 9 mps 750 mmHg 81%
15:00 +8°C° 0.2 mm 9 mps 750 mmHg 83%
16:00 +9°C° 0.3 mm 8 mps 751 mmHg 85%
17:00 +8°C° 0.3 mm 7 mps 751 mmHg 88%
18:00 +8°C° 0.3 mm 6 mps 752 mmHg 90%
19:00 +7°C° 0.1 mm 6 mps 753 mmHg 91%
20:00 +7°C° 0.1 mm 5 mps 753 mmHg 91%
21:00 +6°C° 0.1 mm 5 mps 754 mmHg 92%
22:00 +6°C° 0.1 mm 5 mps 754 mmHg 92%
23:00 +6°C° 0.1 mm 5 mps 755 mmHg 91%
Mostrar más

Necesitamos Su Consentimiento

Meteoprog y nuestros Proveedores de Servicios pueden almacenar y acceder a sus datos personales como cookies, identificadores de dispositivo u otras tecnologías similares de su dispositivo y procesar dichos datos para personalizar contenido y anuncios, además de ofrecer funciones de redes sociales y analizar el tráfico.

  • Almacenar y/o acceder a información en su dispositivo

    Se puede almacenar o acceder a cookies, identificadores de dispositivo u otra información de su dispositivo para los fines anteriormente indicados.

  • Anuncios y contenido personalizados, medición de anuncios y contenido, percepciones del público, y desarrollo de productos

    Los anuncios y el contenido pueden personalizarse en base a su perfil. Se pueden añadir más datos para personalizar mejor los anuncios y contenidos. Se puede medir el rendimiento de los anuncios y contenidos. Se puede obtener la percepción sobre el público que ha visto los anuncios y contenidos. Dichos datos pueden usarse para desarrollar o mejorar la experiencia del usuario, sistemas y software.

Al hacer clic en ‘Estoy De Acuerdo’ usted permitirá el uso de las cookies, identificadores de dispositivo, balizas web u otras tecnologías similares indicadas. Su configuración puede cambiarse desde el navegador de su dispositivo.

Para ciertos fines, los intereses legítimos pueden ser considerados por encima del consentimiento. Puede leer más sobre ello en nuestra Política de Privacidad y Cookies.